FW6918 Weather Reports


time (UTC)temp
C
wind
direction
speed
KPH
gust
KPH
rain 1hr
cm
rain 24hr
cm
rain mn
cm
humidity
%
barometer
mb
20260502233042 20 250 14.5 24.1 0.00 0.00 0.00 33 1006.7
20260502231601 19 288 6.4 14.5 0.00 0.00 0.00 29 1006.9
20260502231502 19 324 8.0 14.5 0.00 0.00 0.00 30 1007.0
20260502230011 18 345 11.3 20.9 0.00 0.00 0.00 34 1007.0
20260502224528 19 332 9.7 19.3 0.00 0.00 0.00 31 1007.0
20260502223036 20 196 9.7 17.7 0.00 0.00 0.00 29 1007.1
20260502221606 19 267 9.7 20.9 0.00 0.00 0.00 34 1007.5
20260502220012 20 294 19.3 29.0 0.00 0.00 0.00 32 1007.7
20260502214524 19 288 11.3 27.4 0.00 0.00 0.00 33 1007.7
20260502213042 19 259 12.9 24.1 0.00 0.00 0.00 33 1008.0
20260502211547 19 267 9.7 19.3 0.00 0.00 0.00 33 1008.1
20260502210010 17 351 8.0 12.9 0.00 0.00 0.00 34 1008.5
20260502204522 17 313 6.4 12.9 0.00 0.00 0.00 34 1008.6
20260502203039 17 305 8.0 17.7 0.00 0.00 0.00 35 1008.6
20260502201550 17 259 9.7 19.3 0.00 0.00 0.00 38 1008.9
20260502200006 18 304 16.1 22.5 0.00 0.00 0.00 38 1009.2
20260502194512 18 226 6.4 19.3 0.00 0.00 0.00 38 1009.4
20260502193026 16 226 8.0 17.7 0.00 0.00 0.00 40 1009.4
20260502191543 17 270 6.4 16.1 0.00 0.00 0.00 36 1009.6
20260502190057 16 317 9.7 17.7 0.00 0.00 0.00 44 1009.7
20260502184509 16 309 11.3 16.1 0.00 0.00 0.00 38 1010.1
20260502183022 17 94 1.6 16.1 0.00 0.00 0.00 39 1010.3
20260502181537 17 268 11.3 17.7 0.00 0.00 0.00 39 1010.3
20260502163011 15 25 4.8 9.7 0.00 0.00 0.00 51 1011.0
20260502161521 13 284 1.6 9.7 0.00 0.00 0.00 55 1011.1
20260502151613 12 106 1.6 4.8 0.00 0.00 0.00 57 1011.0
20260502130107 6 331 6.4 8.0 0.00 0.00 0.00 75 1010.3
20260502123033 6 351 8.0 11.3 0.00 0.00 0.00 73 1009.9
20260502121546 6 5 6.4 11.3 0.00 0.00 0.00 73 1009.9
20260502114512 6 355 6.4 9.7 0.00 0.00 0.00 74 1009.6
20260502113032 6 360 8.0 11.3 0.00 0.00 0.00 73 1009.6
20260502111540 6 347 6.4 9.7 0.00 0.00 0.00 73 1009.4
20260502110057 6 355 8.0 11.3 0.00 0.00 0.00 73 1009.3
20260502104506 6 349 8.0 11.3 0.00 0.00 0.00 74 1008.9
20260502103024 6 349 8.0 11.3 0.00 0.00 0.00 74 1008.9
20260502101531 6 340 8.0 11.3 0.00 0.00 0.00 73 1008.8
20260502091514 9 331 6.4 11.3 0.00 0.00 0.00 65 1008.1
20260502071502 13 5 17.7 29.0 0.00 0.00 0.00 54 1007.0
20260502070037 11 342 11.3 17.7 0.00 0.00 0.00 59 1007.0
20260502064529 10 308 4.8 12.9 0.00 0.00 0.00 61 1007.0
20260502063042 9 341 8.0 12.9 0.00 0.00 0.00 61 1006.9
20260502061544 10 346 9.7 14.5 0.00 0.00 0.00 57 1007.0
20260502060021 11 340 11.3 16.1 0.00 0.00 0.00 54 1006.8
20260502054537 11 351 12.9 16.1 0.00 0.00 0.00 53 1006.8
20260502053043 12 321 11.3 19.3 0.00 0.00 0.00 53 1006.8
20260502051502 13 338 14.5 22.5 0.00 0.00 0.00 47 1006.4
20260502050009 13 355 16.1 22.5 0.00 0.00 0.00 47 1006.3
20260502044524 14 355 16.1 24.1 0.00 0.00 0.00 45 1006.3
20260502043034 14 334 16.1 24.1 0.00 0.00 0.00 45 1006.3
20260502041556 14 360 17.7 25.7 0.00 0.00 0.00 45 1006.3
20260502040057 14 340 16.1 24.1 0.00 0.00 0.00 45 1006.3
20260502034517 15 344 16.1 24.1 0.00 0.00 0.00 42 1005.9
20260502033022 16 360 17.7 27.4 0.00 0.00 0.00 39 1005.8
20260502031538 17 5 22.5 33.8 0.00 0.00 0.00 37 1005.8
20260502030053 16 343 14.5 19.3 0.00 0.00 0.00 36 1005.4
20260502024508 16 355 12.9 20.9 0.00 0.00 0.00 36 1005.1
20260502023019 17 340 14.5 19.3 0.00 0.00 0.00 34 1004.9
20260502021534 18 355 16.1 27.4 0.00 0.00 0.00 31 1004.9
20260502020044 19 355 20.9 32.2 0.00 0.00 0.00 31 1004.9
20260502014600 19 338 19.3 29.0 0.00 0.00 0.00 30 1004.7
20260502013012 19 346 20.9 32.2 0.00 0.00 0.00 31 1004.3
20260502011528 20 343 25.7 38.6 0.00 0.00 0.00 28 1004.3
20260502010037 21 346 25.7 38.6 0.00 0.00 0.00 29 1004.2
20260502004552 21 339 25.7 45.1 0.00 0.00 0.00 28 1004.2
20260502003100 22 344 25.7 35.4 0.00 0.00 0.00 27 1004.2
20260502003006 22 335 25.7 35.4 0.00 0.00 0.00 27 1004.0
20260502001519 22 306 20.9 29.0 0.00 0.00 0.00 27 1003.8
20260502000055 22 300 22.5 30.6 0.00 0.00 0.00 26 1003.8
20260501234542 23 270 16.1 33.8 0.00 0.00 0.00 22 1003.8